Regional Weather Roundup
Issued by NWS

Home | Current Version | Previous Version | Graphics & Text | Print | Product List | Glossary On
Versions: 1 2 3 4 5 6 7 8 9 10 11 12 13 14 15 16 17 18 19 20 21 22 23 24 25 26 27 28
000
ASUS45 KBOI 281710
RWRID

IDAHO REGIONAL WEATHER ROUNDUP
NATIONAL WEATHER SERVICE BOISE ID
1100 AM MDT SAT MAY 28 2016

NOTE: "FAIR" INDICATES FEW OR NO CLOUDS BELOW 12000 FEET
WITH NO SIGNIFICANT WEATHER AND/OR OBSTRUCTIONS TO VISIBILITY

IDZ012-014-281800-
SOUTHWEST IDAHO


CITY           SKY/WX    TMP DP  RH WIND       PRES   REMARKS
BOISE          SUNNY     57  33  40 VRB6      30.10S
CALDWELL       SUNNY     59  35  40 NW8       30.10F
MOUNTAIN HOME  SUNNY     64  36  35 NW14      30.08S
$$

IDZ016-017-281800-
SOUTHCENTRAL IDAHO


CITY           SKY/WX    TMP DP  RH WIND       PRES   REMARKS
BURLEY         SUNNY     57  33  40 W12G20    30.08S
JEROME         SUNNY     57  31  37 SW14      30.09S
TWIN FALLS     SUNNY     57  30  35 W9        30.09F
$$

IDZ019>023-281800-
SOUTHEAST IDAHO


CITY           SKY/WX    TMP DP  RH WIND       PRES   REMARKS
IDAHO FALLS    MOSUNNY   54  34  46 SW15G24   30.07R
POCATELLO      SUNNY     59  31  34 SW18G24   30.08F
REXBURG        SUNNY     54  33  45 SW13      30.06R
$$

IDZ006-010-011-018-031-032-281800-
CENTRAL IDAHO MOUNTAINS


CITY           SKY/WX    TMP DP  RH WIND       PRES   REMARKS
MCCALL         MOSUNNY   47  29  49 S7        30.07S
HAILEY         SUNNY     54  36  50 SE8       30.08R
STANLEY          N/A     50  21  32 N8        30.08F
SALMON         CLOUDY    54  36  50 NW3       30.03S
CHALLIS        SUNNY     54  29  38 VRB5      30.03F
$$

IDZ002-004-006-007-026-281800-
NORTHERN IDAHO


CITY           SKY/WX    TMP DP  RH WIND       PRES   REMARKS
LEWISTON       SUNNY     58  38  47 CALM      30.08F
LOWELL           N/A     58  40  51 S6        30.08F
COEUR D`ALENE  PTSUNNY   54  36  50 S5        30.05F
MULLAN PASS    PTSUNNY   46  29  51 VRB3      30.05S
$$




USA.gov is the U.S. government's official web portal to all federal, state and local government web resources and services.